TimeEDT,TemperatureF,Dew PointF,Humidity,Sea Level PressureIn,VisibilityMPH,Wind Direction,Wind SpeedMPH,Gust SpeedMPH,PrecipitationIn,Events,Conditions,WindDirDegrees,DateUTC
12:53 AM,41.0,37.9,89,30.13,10.0,Calm,Calm,-,N/A,,Clear,0,2012-10-12 04:53:00
1:53 AM,44.1,39.0,82,30.11,10.0,West,5.8,-,N/A,,Clear,260,2012-10-12 05:53:00
2:53 AM,39.9,37.9,93,30.09,10.0,Calm,Calm,-,N/A,,Clear,0,2012-10-12 06:53:00
3:53 AM,39.2,37.4,93,30.07,10.0,Calm,Calm,-,N/A,,Clear,0,2012-10-12 07:53:00
4:53 AM,41.0,37.9,89,30.05,10.0,Calm,Calm,-,N/A,,Clear,0,2012-10-12 08:53:00
5:53 AM,41.0,37.9,89,30.04,10.0,Calm,Calm,-,N/A,,Clear,0,2012-10-12 09:53:00
6:53 AM,48.9,42.1,77,30.02,10.0,WSW,8.1,-,N/A,,Clear,250,2012-10-12 10:53:00
7:53 AM,51.1,44.1,77,30.02,10.0,WSW,8.1,-,N/A,,Clear,240,2012-10-12 11:53:00
8:53 AM,55.9,46.0,69,30.04,10.0,West,10.4,-,N/A,,Clear,270,2012-10-12 12:53:00
9:53 AM,57.9,41.0,53,30.04,10.0,West,11.5,-,N/A,,Clear,280,2012-10-12 13:53:00
10:53 AM,57.0,37.9,49,30.05,10.0,NW,11.5,-,N/A,,Clear,310,2012-10-12 14:53:00
11:53 AM,54.0,37.9,55,30.06,10.0,North,11.5,18.4,N/A,,Overcast,350,2012-10-12 15:53:00
12:53 PM,48.2,39.2,71,30.07,10.0,NNW,6.9,18.4,N/A,Rain,Light Rain,340,2012-10-12 16:53:00
1:53 PM,46.9,42.1,83,30.07,10.0,Variable,3.5,-,0.00,Rain,Light Rain,0,2012-10-12 17:53:00
2:53 PM,48.0,41.0,77,30.09,10.0,NW,6.9,-,0.01,,Mostly Cloudy,320,2012-10-12 18:53:00
3:53 PM,50.0,39.0,66,30.09,10.0,Variable,5.8,-,N/A,,Mostly Cloudy,0,2012-10-12 19:53:00
4:53 PM,52.0,37.0,57,30.12,10.0,Variable,5.8,-,N/A,,Partly Cloudy,0,2012-10-12 20:53:00
5:53 PM,48.2,33.8,58,30.14,10.0,North,9.2,-,N/A,,Partly Cloudy,350,2012-10-12 21:53:00
6:53 PM,45.0,33.1,63,30.19,10.0,NW,3.5,-,N/A,,Clear,320,2012-10-12 22:53:00
7:53 PM,43.0,30.9,62,30.23,10.0,NW,3.5,-,N/A,,Clear,320,2012-10-12 23:53:00
8:53 PM,42.1,28.9,60,30.27,10.0,NNW,3.5,-,N/A,,Clear,330,2012-10-13 00:53:00
9:53 PM,42.8,28.4,57,30.31,10.0,NNW,6.9,-,N/A,,Clear,340,2012-10-13 01:53:00
10:53 PM,39.9,26.1,58,30.33,10.0,NW,4.6,-,N/A,,Clear,310,2012-10-13 02:53:00
11:53 PM,37.9,25.0,60,30.36,10.0,Variable,4.6,-,N/A,,Clear,0,2012-10-13 03:53:00